Location: Gallinara
(44.0333°N, 8.2333°E)
Time: 16:54:00
(UTC+00:00)

SAR-Lupe-1 - Pass Details

Date: 25 September 2020
Orbit: 474 x 492 km, 98.1° (Epoch: 27 October)

Event Time Altitude Azimuth Distance (km) Brightness Sun altitude
Rises 04:27:24 0° 176° (S) 2,526 7.7 -9.9°
Reaches altitude 10° 04:29:28 10° 180° (S) 1,655 6.7 -9.5°
Maximum altitude 04:32:57 54° 259° (WSW) 597 4.1 -8.9°
Drops below altitude 10° 04:36:30 10° 338° (NNW) 1,680 6.6 -8.3°
Sets 04:38:37 0° 343° (NNW) 2,569 7.6 -7.9°
